• In Hungary
  • List of Countries
  • For 7 days
  • Water Temperature
  • Satellite Maps
  • Weather Map
  • News
  • Weather Widgets
  • user-avatar
    Login

    Hourly Weather Byrdowo

    Today, 16 July, Monday

    Time Temperature Precipitation Wind Pressure Humidity
    00:00 +15°C° 0.1 mm 1 mps 721 mmHg 87%
    01:00 +15°C° 0 mm 1 mps 721 mmHg 88%
    02:00 +15°C° 0 mm 1 mps 720 mmHg 89%
    03:00 +14°C° 0 mm 1 mps 720 mmHg 89%
    04:00 +14°C° 0 mm 1 mps 720 mmHg 90%
    05:00 +16°C° 0 mm 2 mps 720 mmHg 86%
    06:00 +17°C° 0 mm 2 mps 720 mmHg 81%
    07:00 +19°C° 0 mm 2 mps 720 mmHg 77%
    08:00 +20°C° 0.3 mm 3 mps 720 mmHg 73%
    09:00 +21°C° 0.3 mm 3 mps 720 mmHg 69%
    10:00 +22°C° 0.3 mm 3 mps 720 mmHg 65%
    11:00 +24°C° 0.4 mm 3 mps 720 mmHg 64%
    12:00 +25°C° 0.4 mm 4 mps 720 mmHg 63%
    13:00 +25°C° 0.4 mm 4 mps 719 mmHg 62%
    14:00 +25°C° 0.8 mm 4 mps 719 mmHg 65%
    15:00 +24°C° 0.8 mm 3 mps 719 mmHg 69%
    16:00 +24°C° 0.8 mm 3 mps 719 mmHg 73%
    17:00 +22°C° 0.4 mm 3 mps 718 mmHg 76%
    18:00 +21°C° 0.4 mm 2 mps 718 mmHg 80%
    19:00 +19°C° 0.4 mm 2 mps 718 mmHg 83%
    20:00 +19°C° 0.5 mm 2 mps 718 mmHg 85%
    21:00 +18°C° 0.5 mm 2 mps 717 mmHg 87%
    22:00 +17°C° 0.5 mm 2 mps 717 mmHg 90%
    23:00 +16°C° 0 mm 2 mps 717 mmHg 91%

    Tomorrow, 17 July, Tuesday

    Time Temperature Precipitation Wind Pressure Humidity
    00:00 +16°C° 0 mm 2 mps 717 mmHg 92%
    01:00 +15°C° 0 mm 2 mps 717 mmHg 93%
    02:00 +15°C° 0 mm 2 mps 717 mmHg 93%
    03:00 +15°C° 0 mm 2 mps 717 mmHg 93%
    04:00 +15°C° 0 mm 2 mps 716 mmHg 93%
    05:00 +16°C° 0 mm 2 mps 717 mmHg 91%
    06:00 +17°C° 0 mm 3 mps 717 mmHg 88%
    07:00 +18°C° 0 mm 3 mps 717 mmHg 85%
    08:00 +19°C° 0.3 mm 4 mps 717 mmHg 83%
    09:00 +20°C° 0.3 mm 4 mps 717 mmHg 81%
    10:00 +20°C° 0.3 mm 4 mps 717 mmHg 79%
    11:00 +20°C° 0.5 mm 5 mps 717 mmHg 79%
    12:00 +21°C° 0.5 mm 5 mps 716 mmHg 79%
    13:00 +21°C° 0.5 mm 5 mps 716 mmHg 79%
    14:00 +20°C° 0.4 mm 5 mps 716 mmHg 81%
    15:00 +20°C° 0.4 mm 5 mps 716 mmHg 82%
    16:00 +19°C° 0.4 mm 5 mps 716 mmHg 83%
    17:00 +19°C° 0.2 mm 4 mps 716 mmHg 86%
    18:00 +18°C° 0.2 mm 4 mps 716 mmHg 89%
    19:00 +17°C° 0.2 mm 4 mps 716 mmHg 91%
    20:00 +17°C° 0.4 mm 3 mps 716 mmHg 92%
    21:00 +17°C° 0.4 mm 3 mps 716 mmHg 93%
    22:00 +16°C° 0.4 mm 3 mps 716 mmHg 95%
    23:00 +16°C° 0.5 mm 3 mps 716 mmHg 95%

    Day after tomorrow, 18 July, Wednesday

    Time Temperature Precipitation Wind Pressure Humidity
    00:00 +16°C° 0.5 mm 3 mps 716 mmHg 95%
    01:00 +15°C° 0.5 mm 4 mps 716 mmHg 95%
    02:00 +16°C° 0.9 mm 3 mps 716 mmHg 95%
    03:00 +16°C° 0.9 mm 3 mps 716 mmHg 95%
    04:00 +16°C° 0.9 mm 3 mps 716 mmHg 96%
    05:00 +16°C° 1.3 mm 3 mps 716 mmHg 96%
    06:00 +16°C° 1.3 mm 3 mps 716 mmHg 96%
    07:00 +16°C° 1.3 mm 3 mps 716 mmHg 95%
    08:00 +15°C° 1.4 mm 4 mps 716 mmHg 95%
    09:00 +15°C° 1.4 mm 4 mps 717 mmHg 95%
    10:00 +17°C° 1.4 mm 4 mps 717 mmHg 94%
    11:00 +17°C° 1.1 mm 4 mps 717 mmHg 94%
    12:00 +16°C° 1.1 mm 5 mps 717 mmHg 94%
    13:00 +16°C° 1.1 mm 5 mps 717 mmHg 94%
    14:00 +16°C° 0.8 mm 5 mps 717 mmHg 94%
    15:00 +17°C° 0.8 mm 4 mps 717 mmHg 95%
    16:00 +17°C° 0.8 mm 4 mps 717 mmHg 95%
    17:00 +17°C° 0.8 mm 4 mps 717 mmHg 95%
    18:00 +17°C° 0.8 mm 4 mps 717 mmHg 95%
    19:00 +17°C° 0.8 mm 4 mps 717 mmHg 96%
    20:00 +17°C° 0.6 mm 4 mps 717 mmHg 96%
    21:00 +17°C° 0.6 mm 3 mps 717 mmHg 96%
    22:00 +17°C° 0.6 mm 3 mps 718 mmHg 96%
    23:00 +17°C° 0.6 mm 3 mps 717 mmHg 96%

    19 July, Thursday

    Time Temperature Precipitation Wind Pressure Humidity
    00:00 +17°C° 0.6 mm 3 mps 717 mmHg 96%
    01:00 +17°C° 0.6 mm 3 mps 717 mmHg 96%
    02:00 +17°C° 0.7 mm 3 mps 717 mmHg 96%
    03:00 +17°C° 0.7 mm 3 mps 717 mmHg 96%
    04:00 +17°C° 0.7 mm 3 mps 717 mmHg 96%
    05:00 +17°C° 1.5 mm 3 mps 718 mmHg 96%
    06:00 +17°C° 1.5 mm 3 mps 718 mmHg 96%
    07:00 +16°C° 1.5 mm 3 mps 718 mmHg 96%
    08:00 +17°C° 1.4 mm 3 mps 718 mmHg 96%
    09:00 +17°C° 1.4 mm 3 mps 718 mmHg 96%
    10:00 +17°C° 1.4 mm 3 mps 719 mmHg 96%
    11:00 +17°C° 0.7 mm 3 mps 719 mmHg 95%
    12:00 +17°C° 0.7 mm 3 mps 719 mmHg 95%
    13:00 +17°C° 0.7 mm 3 mps 719 mmHg 95%
    14:00 +17°C° 0.2 mm 3 mps 719 mmHg 95%
    15:00 +17°C° 0.2 mm 3 mps 719 mmHg 94%
    16:00 +17°C° 0.2 mm 3 mps 719 mmHg 94%
    17:00 +17°C° 0.2 mm 3 mps 720 mmHg 94%
    18:00 +17°C° 0.2 mm 2 mps 720 mmHg 95%
    19:00 +17°C° 0.2 mm 2 mps 720 mmHg 96%
    20:00 +17°C° 0.1 mm 2 mps 720 mmHg 96%
    21:00 +17°C° 0.1 mm 2 mps 720 mmHg 96%
    22:00 +17°C° 0.1 mm 2 mps 720 mmHg 96%
    23:00 +17°C° 0.2 mm 2 mps 720 mmHg 97%

    20 July, Friday

    Time Temperature Precipitation Wind Pressure Humidity
    00:00 +17°C° 0.2 mm 2 mps 720 mmHg 97%
    01:00 +17°C° 0.2 mm 2 mps 720 mmHg 97%
    02:00 +16°C° 0.2 mm 2 mps 720 mmHg 97%
    03:00 +16°C° 0.2 mm 2 mps 720 mmHg 97%
    04:00 +16°C° 0.2 mm 2 mps 720 mmHg 97%
    05:00 +16°C° 0.1 mm 2 mps 720 mmHg 95%
    06:00 +16°C° 0.1 mm 2 mps 720 mmHg 94%
    07:00 +16°C° 0.1 mm 2 mps 720 mmHg 93%
    08:00 +17°C° 0.1 mm 2 mps 720 mmHg 90%
    09:00 +17°C° 0.1 mm 2 mps 720 mmHg 86%
    10:00 +18°C° 0.1 mm 2 mps 720 mmHg 83%
    11:00 +19°C° 0 mm 2 mps 720 mmHg 77%
    12:00 +21°C° 0 mm 2 mps 720 mmHg 72%
    13:00 +23°C° 0 mm 2 mps 720 mmHg 66%
    14:00 +23°C° 0 mm 2 mps 720 mmHg 63%
    15:00 +24°C° 0 mm 2 mps 720 mmHg 61%
    16:00 +24°C° 0 mm 3 mps 720 mmHg 58%
    17:00 +23°C° 0 mm 2 mps 720 mmHg 64%
    18:00 +21°C° 0 mm 2 mps 719 mmHg 69%
    19:00 +20°C° 0 mm 1 mps 719 mmHg 75%
    20:00 +19°C° 0 mm 1 mps 719 mmHg 79%
    21:00 +18°C° 0 mm 1 mps 719 mmHg 82%
    22:00 +14°C° 0 mm 0 mps 719 mmHg 86%
    23:00 +15°C° 0 mm 1 mps 719 mmHg 87%

    21 July, Saturday

    Time Temperature Precipitation Wind Pressure Humidity
    00:00 +14°C° 0 mm 1 mps 719 mmHg 88%
    01:00 +14°C° 0 mm 1 mps 719 mmHg 88%
    02:00 +14°C° 0 mm 1 mps 719 mmHg 89%
    03:00 +14°C° 0 mm 1 mps 719 mmHg 90%
    04:00 +13°C° 0 mm 1 mps 719 mmHg 90%
    05:00 +15°C° 0 mm 1 mps 719 mmHg 85%
    06:00 +18°C° 0 mm 1 mps 719 mmHg 80%
    07:00 +18°C° 0 mm 0 mps 719 mmHg 74%
    08:00 +22°C° 0 mm 1 mps 719 mmHg 69%
    09:00 +23°C° 0 mm 1 mps 719 mmHg 63%
    10:00 +25°C° 0 mm 1 mps 720 mmHg 58%
    11:00 +25°C° 0 mm 1 mps 719 mmHg 55%
    12:00 +26°C° 0 mm 1 mps 719 mmHg 53%
    13:00 +26°C° 0 mm 1 mps 719 mmHg 50%
    14:00 +26°C° 0.1 mm 1 mps 719 mmHg 52%
    15:00 +26°C° 0.1 mm 1 mps 719 mmHg 55%
    16:00 +26°C° 0.1 mm 1 mps 718 mmHg 57%
    17:00 +24°C° 0.1 mm 1 mps 718 mmHg 63%
    18:00 +23°C° 0.1 mm 1 mps 718 mmHg 68%
    19:00 +21°C° 0.1 mm 2 mps 718 mmHg 74%
    20:00 +19°C° 0 mm 2 mps 718 mmHg 77%
    21:00 +18°C° 0 mm 2 mps 718 mmHg 79%
    22:00 +17°C° 0 mm 2 mps 718 mmHg 82%
    23:00 +16°C° 0 mm 1 mps 718 mmHg 83%
    Show more